• In Czech Republic
  • List of Countries
  • For 7 days
  • Water Temperature
  • Satellite Maps
  • Weather Map
  • Weather Widgets
  • user-avatar
    Login

    Hourly Weather Bedford

    Today, 22 October, Sunday

    Time Temperature Precipitation Wind Pressure Humidity
    00:00 +11°C° 0.1 mm 8 mps 750 mmHg 78%
    01:00 +10°C° 0 mm 8 mps 750 mmHg 76%
    02:00 +10°C° 0 mm 8 mps 751 mmHg 75%
    03:00 +9°C° 0 mm 8 mps 751 mmHg 73%
    04:00 +9°C° 0 mm 8 mps 752 mmHg 73%
    05:00 +9°C° 0 mm 8 mps 752 mmHg 72%
    06:00 +9°C° 0 mm 8 mps 753 mmHg 71%
    07:00 +8°C° 0 mm 9 mps 753 mmHg 69%
    08:00 +8°C° 0 mm 9 mps 754 mmHg 67%
    09:00 +8°C° 0 mm 9 mps 755 mmHg 65%
    10:00 +9°C° 0 mm 10 mps 755 mmHg 62%
    11:00 +11°C° 0 mm 10 mps 755 mmHg 59%
    12:00 +11°C° 0 mm 10 mps 756 mmHg 57%
    13:00 +11°C° 0 mm 9 mps 756 mmHg 58%
    14:00 +11°C° 0 mm 9 mps 756 mmHg 59%
    15:00 +11°C° 0 mm 8 mps 757 mmHg 60%
    16:00 +11°C° 0 mm 7 mps 757 mmHg 65%
    17:00 +10°C° 0 mm 6 mps 758 mmHg 69%
    18:00 +9°C° 0 mm 5 mps 758 mmHg 73%
    19:00 +9°C° 0 mm 5 mps 759 mmHg 76%
    20:00 +9°C° 0 mm 5 mps 759 mmHg 79%
    21:00 +9°C° 0 mm 5 mps 760 mmHg 81%
    22:00 +8°C° 0 mm 5 mps 760 mmHg 83%
    23:00 +8°C° 0 mm 5 mps 760 mmHg 84%

    Tomorrow, 23 October, Monday

    Time Temperature Precipitation Wind Pressure Humidity
    00:00 +8°C° 0 mm 5 mps 760 mmHg 86%
    01:00 +8°C° 0 mm 4 mps 760 mmHg 87%
    02:00 +8°C° 0 mm 4 mps 760 mmHg 88%
    03:00 +8°C° 0 mm 4 mps 760 mmHg 90%
    04:00 +10°C° 0.1 mm 4 mps 760 mmHg 90%
    05:00 +10°C° 0.1 mm 4 mps 759 mmHg 91%
    06:00 +11°C° 0.1 mm 4 mps 759 mmHg 92%
    07:00 +11°C° 0.3 mm 4 mps 759 mmHg 92%
    08:00 +12°C° 0.3 mm 5 mps 759 mmHg 92%
    09:00 +12°C° 0.3 mm 5 mps 759 mmHg 91%
    10:00 +13°C° 0.1 mm 5 mps 759 mmHg 89%
    11:00 +14°C° 0.1 mm 5 mps 759 mmHg 87%
    12:00 +16°C° 0.1 mm 5 mps 759 mmHg 85%
    13:00 +16°C° 0.1 mm 5 mps 759 mmHg 86%
    14:00 +17°C° 0.1 mm 4 mps 758 mmHg 87%
    15:00 +17°C° 0.1 mm 4 mps 758 mmHg 89%
    16:00 +15°C° 0.1 mm 4 mps 759 mmHg 91%
    17:00 +16°C° 0.1 mm 3 mps 759 mmHg 92%
    18:00 +14°C° 0.1 mm 3 mps 759 mmHg 94%
    19:00 +14°C° 0 mm 3 mps 759 mmHg 95%
    20:00 +13°C° 0 mm 3 mps 760 mmHg 95%
    21:00 +13°C° 0 mm 3 mps 760 mmHg 96%
    22:00 +13°C° 0 mm 3 mps 760 mmHg 96%
    23:00 +13°C° 0 mm 3 mps 760 mmHg 96%

    Day after tomorrow, 24 October, Tuesday

    Time Temperature Precipitation Wind Pressure Humidity
    00:00 +12°C° 0 mm 3 mps 760 mmHg 97%
    01:00 +13°C° 0.3 mm 3 mps 760 mmHg 96%
    02:00 +14°C° 0.3 mm 4 mps 759 mmHg 96%
    03:00 +14°C° 0.3 mm 5 mps 759 mmHg 96%
    04:00 +15°C° 0.4 mm 5 mps 759 mmHg 95%
    05:00 +15°C° 0.4 mm 5 mps 759 mmHg 94%
    06:00 +16°C° 0.4 mm 6 mps 758 mmHg 93%
    07:00 +16°C° 0 mm 6 mps 759 mmHg 91%
    08:00 +16°C° 0 mm 7 mps 759 mmHg 89%
    09:00 +17°C° 0 mm 7 mps 759 mmHg 88%
    10:00 +17°C° 0 mm 8 mps 759 mmHg 85%
    11:00 +17°C° 0 mm 8 mps 759 mmHg 82%
    12:00 +18°C° 0 mm 8 mps 759 mmHg 79%
    13:00 +18°C° 0 mm 8 mps 759 mmHg 80%
    14:00 +17°C° 0 mm 8 mps 759 mmHg 81%
    15:00 +17°C° 0 mm 8 mps 759 mmHg 82%
    16:00 +17°C° 0 mm 7 mps 759 mmHg 83%
    17:00 +16°C° 0 mm 7 mps 759 mmHg 85%
    18:00 +16°C° 0 mm 7 mps 759 mmHg 86%
    19:00 +16°C° 0 mm 7 mps 759 mmHg 87%
    20:00 +15°C° 0 mm 7 mps 759 mmHg 88%
    21:00 +15°C° 0 mm 7 mps 759 mmHg 89%
    22:00 +15°C° 0 mm 7 mps 759 mmHg 89%
    23:00 +15°C° 0 mm 7 mps 759 mmHg 89%

    25 October, Wednesday

    Time Temperature Precipitation Wind Pressure Humidity
    00:00 +15°C° 0 mm 7 mps 759 mmHg 89%
    01:00 +15°C° 0 mm 7 mps 759 mmHg 88%
    02:00 +15°C° 0 mm 7 mps 759 mmHg 88%
    03:00 +15°C° 0 mm 7 mps 759 mmHg 88%
    04:00 +15°C° 0 mm 6 mps 759 mmHg 88%
    05:00 +15°C° 0 mm 5 mps 760 mmHg 88%
    06:00 +15°C° 0 mm 5 mps 760 mmHg 88%
    07:00 +15°C° 0 mm 5 mps 760 mmHg 86%
    08:00 +15°C° 0 mm 5 mps 761 mmHg 84%
    09:00 +16°C° 0 mm 5 mps 761 mmHg 82%
    10:00 +16°C° 0 mm 5 mps 762 mmHg 78%
    11:00 +17°C° 0 mm 5 mps 762 mmHg 74%
    12:00 +19°C° 0 mm 5 mps 762 mmHg 70%
    13:00 +18°C° 0 mm 4 mps 762 mmHg 72%
    14:00 +18°C° 0 mm 4 mps 763 mmHg 74%
    15:00 +18°C° 0 mm 3 mps 763 mmHg 76%
    16:00 +17°C° 0 mm 3 mps 763 mmHg 79%
    17:00 +17°C° 0 mm 3 mps 763 mmHg 83%
    18:00 +16°C° 0 mm 2 mps 763 mmHg 87%
    19:00 +16°C° 0 mm 2 mps 764 mmHg 89%
    20:00 +16°C° 0 mm 2 mps 764 mmHg 91%
    21:00 +16°C° 0 mm 3 mps 764 mmHg 93%
    22:00 +16°C° 0 mm 3 mps 764 mmHg 94%
    23:00 +14°C° 0 mm 3 mps 764 mmHg 94%

    26 October, Thursday

    Time Temperature Precipitation Wind Pressure Humidity
    00:00 +14°C° 0 mm 3 mps 764 mmHg 95%
    01:00 +14°C° 0 mm 3 mps 764 mmHg 95%
    02:00 +14°C° 0 mm 3 mps 764 mmHg 94%
    03:00 +14°C° 0 mm 3 mps 764 mmHg 94%
    04:00 +14°C° 0 mm 3 mps 764 mmHg 95%
    05:00 +13°C° 0 mm 3 mps 764 mmHg 95%
    06:00 +12°C° 0 mm 3 mps 764 mmHg 95%
    07:00 +13°C° 0 mm 3 mps 764 mmHg 92%
    08:00 +13°C° 0 mm 3 mps 764 mmHg 89%
    09:00 +14°C° 0 mm 3 mps 765 mmHg 86%
    10:00 +14°C° 0 mm 3 mps 765 mmHg 82%
    11:00 +15°C° 0 mm 4 mps 764 mmHg 78%
    12:00 +17°C° 0 mm 4 mps 764 mmHg 74%
    13:00 +17°C° 0 mm 3 mps 764 mmHg 73%
    14:00 +17°C° 0 mm 3 mps 764 mmHg 73%
    15:00 +17°C° 0 mm 3 mps 764 mmHg 72%
    16:00 +16°C° 0 mm 2 mps 764 mmHg 77%
    17:00 +15°C° 0 mm 2 mps 764 mmHg 82%
    18:00 +14°C° 0 mm 1 mps 764 mmHg 87%
    19:00 +14°C° 0 mm 1 mps 764 mmHg 88%
    20:00 +14°C° 0 mm 1 mps 764 mmHg 89%
    21:00 +14°C° 0 mm 2 mps 764 mmHg 90%
    22:00 +13°C° 0 mm 2 mps 764 mmHg 91%
    23:00 +13°C° 0 mm 2 mps 764 mmHg 92%

    27 October, Friday

    Time Temperature Precipitation Wind Pressure Humidity
    00:00 +13°C° 0 mm 2 mps 764 mmHg 93%
    01:00 +13°C° 0 mm 2 mps 764 mmHg 93%
    02:00 +12°C° 0 mm 2 mps 763 mmHg 94%
    03:00 +12°C° 0 mm 2 mps 763 mmHg 94%
    04:00 +12°C° 0 mm 2 mps 763 mmHg 95%
    05:00 +12°C° 0 mm 2 mps 764 mmHg 95%
    06:00 +10°C° 0 mm 2 mps 764 mmHg 95%
    07:00 +11°C° 0 mm 3 mps 764 mmHg 92%
    08:00 +12°C° 0 mm 3 mps 765 mmHg 89%
    09:00 +13°C° 0 mm 3 mps 765 mmHg 86%
    10:00 +13°C° 0 mm 4 mps 766 mmHg 83%
    11:00 +14°C° 0 mm 4 mps 766 mmHg 81%
    12:00 +15°C° 0 mm 4 mps 766 mmHg 79%
    13:00 +15°C° 0 mm 4 mps 766 mmHg 78%
    14:00 +15°C° 0 mm 4 mps 766 mmHg 78%
    15:00 +15°C° 0 mm 4 mps 766 mmHg 77%
    16:00 +14°C° 0 mm 4 mps 766 mmHg 81%
    17:00 +14°C° 0 mm 3 mps 766 mmHg 84%
    18:00 +13°C° 0 mm 3 mps 766 mmHg 88%
    19:00 +13°C° 0 mm 3 mps 766 mmHg 90%
    20:00 +12°C° 0 mm 3 mps 766 mmHg 91%
    21:00 +12°C° 0 mm 3 mps 766 mmHg 93%
    22:00 +12°C° 0 mm 3 mps 765 mmHg 93%
    23:00 +11°C° 0 mm 3 mps 765 mmHg 94%
    Show more